ANA988 RJCC-RJTT

Flight info

Callsign ANA988
Flight time 1h 15m
Altitude 34000
Route TOBBY Y10 GODIN
Aircraft A21N/M-SDE3FGHIRWY/LB1

Departure

Time 2026-02-21 05:28
Airport New Chitose Airport (RJCC)

Arrival

Time 2026-02-21 06:43
Airport Tokyo Haneda International Airport (RJTT)
Time Latitude Longitude Altitude Speed Heading
2026-02-21 05:04 42.78897 141.68214 87 ft 0 kts 238°
2026-02-21 05:14 42.78902 141.68227 87 ft 2 kts 239°
2026-02-21 05:15 42.78910 141.68243 86 ft 2 kts 238°
2026-02-21 05:15 42.78918 141.68260 86 ft 2 kts 238°
2026-02-21 05:15 42.78924 141.68272 86 ft 0 kts 238°
2026-02-21 05:15 42.78932 141.68288 86 ft 2 kts 219°
2026-02-21 05:16 42.78945 141.68298 85 ft 2 kts 201°
2026-02-21 05:16 42.78959 141.68303 85 ft 2 kts 181°
2026-02-21 05:16 42.78974 141.68301 85 ft 2 kts 161°
2026-02-21 05:16 42.78984 141.68295 84 ft 0 kts 147°
2026-02-21 05:17 42.78991 141.68289 84 ft 0 kts 144°
2026-02-21 05:21 42.78990 141.68289 84 ft 0 kts 144°
2026-02-21 05:21 42.78984 141.68295 84 ft 2 kts 144°
2026-02-21 05:21 42.78963 141.68315 85 ft 4 kts 147°
2026-02-21 05:21 42.78927 141.68344 86 ft 7 kts 153°
2026-02-21 05:22 42.78877 141.68375 87 ft 8 kts 158°
2026-02-21 05:22 42.78818 141.68416 87 ft 10 kts 136°
2026-02-21 05:22 42.78802 141.68521 87 ft 13 kts 86°
2026-02-21 05:22 42.78813 141.68663 81 ft 12 kts 83°
2026-02-21 05:23 42.78817 141.68703 80 ft 0 kts 83°
2026-02-21 05:24 42.78817 141.68707 80 ft 2 kts 83°
2026-02-21 05:25 42.78822 141.68753 79 ft 7 kts 83°
2026-02-21 05:25 42.78787 141.68814 78 ft 10 kts 161°
2026-02-21 05:25 42.78752 141.68825 77 ft 0 kts 171°
2026-02-21 05:27 42.78748 141.68825 77 ft 8 kts 171°
2026-02-21 05:27 42.78413 141.68884 76 ft 85 kts 172°
2026-02-21 05:27 42.77607 141.69026 77 ft 147 kts 173°
2026-02-21 05:27 42.76448 141.69232 289 ft 178 kts 172°
2026-02-21 05:28 42.75176 141.69447 870 ft 191 kts 175°
2026-02-21 05:28 42.73852 141.69403 1707 ft 192 kts 186°
2026-02-21 05:28 42.72597 141.69076 2605 ft 185 kts 195°
2026-02-21 05:28 42.71320 141.68697 3232 ft 193 kts 192°
2026-02-21 05:29 42.69950 141.68529 3769 ft 207 kts 185°
2026-02-21 05:29 42.68437 141.68582 4187 ft 229 kts 182°
2026-02-21 05:29 42.66781 141.68744 4711 ft 247 kts 178°
2026-02-21 05:29 42.65034 141.69016 5274 ft 262 kts 178°
2026-02-21 05:30 42.63189 141.69249 5922 ft 273 kts 180°
2026-02-21 05:30 42.61279 141.69418 6704 ft 278 kts 181°
2026-02-21 05:30 42.59365 141.69635 7640 ft 278 kts 180°
2026-02-21 05:30 42.57453 141.69846 8544 ft 277 kts 180°
2026-02-21 05:31 42.55525 141.70023 9230 ft 285 kts 181°
2026-02-21 05:31 42.53497 141.70174 9732 ft 298 kts 181°
2026-02-21 05:31 42.51464 141.70305 10625 ft 294 kts 181°
2026-02-21 05:31 42.49339 141.70403 10751 ft 320 kts 182°
2026-02-21 05:32 42.47014 141.70520 10986 ft 341 kts 180°
2026-02-21 05:32 42.44555 141.70738 11081 ft 367 kts 178°
2026-02-21 05:32 42.41930 141.71085 11143 ft 389 kts 177°
2026-02-21 05:32 42.39218 141.71431 11606 ft 399 kts 178°
2026-02-21 05:33 42.36459 141.71750 12290 ft 402 kts 178°
2026-02-21 05:33 42.33659 141.72044 12980 ft 404 kts 179°
2026-02-21 05:33 42.30844 141.72319 13610 ft 407 kts 179°
2026-02-21 05:33 42.28022 141.72589 14220 ft 411 kts 179°
2026-02-21 05:34 42.25169 141.72858 14790 ft 415 kts 179°
2026-02-21 05:34 42.22285 141.73129 15331 ft 419 kts 179°
2026-02-21 05:34 42.19338 141.73407 15881 ft 423 kts 179°
2026-02-21 05:34 42.16411 141.73682 16396 ft 426 kts 179°
2026-02-21 05:35 42.13457 141.73958 16913 ft 430 kts 179°
2026-02-21 05:35 42.10434 141.74243 17401 ft 434 kts 180°
2026-02-21 05:35 42.07444 141.74524 17870 ft 437 kts 179°
2026-02-21 05:35 42.04371 141.74811 18344 ft 441 kts 180°
2026-02-21 05:36 42.01295 141.75099 18787 ft 444 kts 180°
2026-02-21 05:36 41.98220 141.75388 19237 ft 448 kts 180°
2026-02-21 05:36 41.95106 141.75678 19706 ft 450 kts 180°
2026-02-21 05:36 41.91959 141.75970 20153 ft 453 kts 180°
2026-02-21 05:37 41.88830 141.76263 20575 ft 457 kts 180°
2026-02-21 05:37 41.85648 141.76559 21010 ft 460 kts 180°
2026-02-21 05:37 41.82456 141.76855 21416 ft 462 kts 180°
2026-02-21 05:37 41.79234 141.77155 21803 ft 465 kts 180°
2026-02-21 05:38 41.76108 141.77446 22159 ft 468 kts 180°
2026-02-21 05:38 41.72844 141.77750 22590 ft 469 kts 180°
2026-02-21 05:38 41.69611 141.78052 23168 ft 467 kts 180°
2026-02-21 05:38 41.66362 141.78354 23748 ft 465 kts 180°
2026-02-21 05:39 41.63160 141.78651 24256 ft 464 kts 180°
2026-02-21 05:39 41.59974 141.78946 24767 ft 463 kts 180°
2026-02-21 05:39 41.56730 141.79246 25273 ft 462 kts 180°
2026-02-21 05:39 41.53540 141.79483 25759 ft 460 kts 183°
2026-02-21 05:40 41.50349 141.79349 26248 ft 455 kts 189°
2026-02-21 05:40 41.47237 141.78806 26703 ft 452 kts 194°
2026-02-21 05:40 41.44194 141.77911 27145 ft 449 kts 198°
2026-02-21 05:40 41.41151 141.76921 27631 ft 448 kts 198°
2026-02-21 05:41 41.38150 141.75928 28098 ft 446 kts 199°
2026-02-21 05:41 41.35135 141.74931 28551 ft 445 kts 199°
2026-02-21 05:41 41.32160 141.73955 29008 ft 443 kts 199°
2026-02-21 05:41 41.29412 141.73055 29418 ft 442 kts 199°
2026-02-21 05:42 41.26614 141.72144 29809 ft 441 kts 199°
2026-02-21 05:42 41.23609 141.71166 30186 ft 441 kts 199°
2026-02-21 05:42 41.20658 141.70209 30552 ft 441 kts 199°
2026-02-21 05:42 41.17688 141.69246 30944 ft 440 kts 199°
2026-02-21 05:43 41.14719 141.68288 31347 ft 438 kts 199°
2026-02-21 05:43 41.11779 141.67337 31676 ft 437 kts 199°
2026-02-21 05:43 41.08821 141.66385 31990 ft 437 kts 199°
2026-02-21 05:43 41.05861 141.65431 32297 ft 436 kts 199°
2026-02-21 05:44 41.02918 141.64484 32514 ft 437 kts 199°
2026-02-21 05:44 41.00074 141.63567 32680 ft 439 kts 199°
2026-02-21 05:44 40.97102 141.62611 32864 ft 441 kts 199°
2026-02-21 05:44 40.94147 141.61661 33034 ft 443 kts 199°
2026-02-21 05:45 40.91137 141.60695 33224 ft 444 kts 199°
2026-02-21 05:45 40.88110 141.59726 33423 ft 445 kts 199°
2026-02-21 05:45 40.85102 141.58763 33559 ft 446 kts 200°
2026-02-21 05:45 40.82087 141.57800 33678 ft 448 kts 200°
2026-02-21 05:46 40.79073 141.56834 33832 ft 449 kts 200°
2026-02-21 05:46 40.76061 141.55872 33982 ft 449 kts 200°
2026-02-21 05:46 40.73019 141.54903 34062 ft 450 kts 200°
2026-02-21 05:47 40.66932 141.52965 34053 ft 451 kts 200°
2026-02-21 05:47 40.60838 141.51028 34051 ft 452 kts 200°
2026-02-21 05:48 40.54711 141.49081 34045 ft 453 kts 200°
2026-02-21 05:48 40.48597 141.47147 34064 ft 452 kts 200°
2026-02-21 05:49 40.42467 141.45207 34079 ft 452 kts 200°
2026-02-21 05:49 40.36368 141.43282 34035 ft 452 kts 200°
2026-02-21 05:50 40.30268 141.41362 34048 ft 452 kts 200°
2026-02-21 05:50 40.24123 141.39429 34035 ft 453 kts 200°
2026-02-21 05:51 40.18008 141.37509 34018 ft 455 kts 200°
2026-02-21 05:51 40.11871 141.35585 34009 ft 454 kts 200°
2026-02-21 05:52 40.05731 141.33664 34015 ft 454 kts 199°
2026-02-21 05:52 39.96503 141.30743 34013 ft 456 kts 200°
2026-02-21 05:53 39.90362 141.28711 34006 ft 456 kts 200°
2026-02-21 05:53 39.84211 141.26683 34030 ft 457 kts 201°
2026-02-21 05:54 39.78048 141.24663 34029 ft 457 kts 201°
2026-02-21 05:54 39.71898 141.22644 34023 ft 457 kts 201°
2026-02-21 05:55 39.65753 141.20638 34023 ft 457 kts 201°
2026-02-21 05:55 39.59546 141.18613 34074 ft 458 kts 201°
2026-02-21 05:56 39.53399 141.16612 34092 ft 458 kts 201°
2026-02-21 05:56 39.47228 141.14603 34073 ft 458 kts 201°
2026-02-21 05:57 39.41047 141.12628 34077 ft 461 kts 200°
2026-02-21 05:57 39.34775 141.10738 34080 ft 460 kts 200°
2026-02-21 05:58 39.28548 141.08872 34068 ft 461 kts 200°
2026-02-21 05:58 39.22304 141.06998 34076 ft 463 kts 200°
2026-02-21 05:59 39.16027 141.05110 34101 ft 463 kts 200°
2026-02-21 05:59 39.09773 141.03235 34063 ft 463 kts 200°
2026-02-21 06:00 39.03508 141.01361 34075 ft 462 kts 201°
2026-02-21 06:00 38.97382 140.99530 34021 ft 462 kts 201°
2026-02-21 06:01 38.91145 140.97669 34058 ft 464 kts 201°
2026-02-21 06:01 38.84828 140.95781 34062 ft 464 kts 201°
2026-02-21 06:02 38.78550 140.93915 34066 ft 463 kts 201°
2026-02-21 06:02 38.72257 140.92049 34070 ft 464 kts 201°
2026-02-21 06:03 38.65963 140.90186 34070 ft 465 kts 201°
2026-02-21 06:03 38.59674 140.88324 34094 ft 466 kts 201°
2026-02-21 06:04 38.53359 140.86461 34066 ft 465 kts 201°
2026-02-21 06:04 38.47060 140.84610 34089 ft 465 kts 201°
2026-02-21 06:05 38.40730 140.82744 34067 ft 466 kts 201°
2026-02-21 06:05 38.34430 140.80893 34075 ft 467 kts 201°
2026-02-21 06:06 38.28077 140.79031 34079 ft 468 kts 201°
2026-02-21 06:06 38.21746 140.77181 34059 ft 467 kts 201°
2026-02-21 06:07 38.15401 140.75326 34105 ft 468 kts 201°
2026-02-21 06:07 38.09062 140.73479 34094 ft 469 kts 201°
2026-02-21 06:08 38.02698 140.71628 34092 ft 469 kts 201°
2026-02-21 06:08 37.96345 140.69786 34059 ft 469 kts 201°
2026-02-21 06:09 37.90032 140.67955 34063 ft 469 kts 201°
2026-02-21 06:09 37.83650 140.66106 34066 ft 470 kts 201°
2026-02-21 06:10 37.77280 140.64265 34058 ft 469 kts 201°
2026-02-21 06:10 37.70905 140.62425 34064 ft 469 kts 201°
2026-02-21 06:11 37.64557 140.60600 34050 ft 469 kts 201°
2026-02-21 06:11 37.58206 140.58772 34040 ft 469 kts 201°
2026-02-21 06:12 37.51869 140.56953 34039 ft 469 kts 201°
2026-02-21 06:12 37.45463 140.55115 33903 ft 471 kts 201°
2026-02-21 06:13 37.42296 140.54205 33376 ft 471 kts 201°
2026-02-21 06:13 37.39100 140.53288 32723 ft 472 kts 201°
2026-02-21 06:13 37.35863 140.52361 32047 ft 474 kts 200°
2026-02-21 06:13 37.32680 140.51450 31348 ft 476 kts 200°
2026-02-21 06:14 37.29443 140.50523 30551 ft 479 kts 200°
2026-02-21 06:14 37.26184 140.49597 29714 ft 480 kts 199°
2026-02-21 06:14 37.22921 140.48673 28955 ft 480 kts 199°
2026-02-21 06:14 37.19679 140.47752 28193 ft 479 kts 199°
2026-02-21 06:15 37.16420 140.46826 27406 ft 479 kts 199°
2026-02-21 06:15 37.13182 140.45908 26614 ft 479 kts 199°
2026-02-21 06:15 37.09948 140.44991 25821 ft 478 kts 198°
2026-02-21 06:15 37.06714 140.44073 24981 ft 478 kts 198°
2026-02-21 06:16 37.03458 140.43152 24099 ft 478 kts 198°
2026-02-21 06:16 37.00217 140.42235 23237 ft 479 kts 198°
2026-02-21 06:16 36.97001 140.41327 22304 ft 479 kts 198°
2026-02-21 06:16 36.93765 140.40413 21476 ft 477 kts 198°
2026-02-21 06:17 36.90541 140.39506 20902 ft 468 kts 198°
2026-02-21 06:17 36.87385 140.38619 20336 ft 461 kts 198°
2026-02-21 06:17 36.84374 140.37773 19718 ft 455 kts 198°
2026-02-21 06:17 36.81428 140.36945 19129 ft 449 kts 198°
2026-02-21 06:18 36.78637 140.36159 18553 ft 444 kts 198°
2026-02-21 06:18 36.75717 140.35341 17969 ft 438 kts 197°
2026-02-21 06:18 36.72886 140.34665 17387 ft 436 kts 193°
2026-02-21 06:18 36.69954 140.34070 16790 ft 431 kts 193°
2026-02-21 06:19 36.67044 140.33485 16418 ft 421 kts 193°
2026-02-21 06:19 36.64182 140.32913 16093 ft 410 kts 193°
2026-02-21 06:19 36.61384 140.32355 16068 ft 403 kts 193°
2026-02-21 06:19 36.58614 140.31798 16063 ft 403 kts 193°
2026-02-21 06:20 36.55845 140.31241 16072 ft 403 kts 193°
2026-02-21 06:20 36.53095 140.30688 16070 ft 403 kts 193°
2026-02-21 06:20 36.50297 140.30127 16071 ft 403 kts 193°
2026-02-21 06:20 36.47530 140.29575 16039 ft 400 kts 193°
2026-02-21 06:21 36.44785 140.29025 15640 ft 396 kts 193°
2026-02-21 06:21 36.42086 140.28485 14994 ft 396 kts 192°
2026-02-21 06:21 36.39388 140.27945 14422 ft 393 kts 192°
2026-02-21 06:21 36.36677 140.27405 13916 ft 388 kts 192°
2026-02-21 06:22 36.34039 140.26877 13370 ft 385 kts 192°
2026-02-21 06:22 36.31408 140.26352 12824 ft 382 kts 192°
2026-02-21 06:22 36.28796 140.25832 12292 ft 379 kts 192°
2026-02-21 06:22 36.26211 140.25314 11743 ft 376 kts 191°
2026-02-21 06:23 36.23703 140.24817 11216 ft 374 kts 191°
2026-02-21 06:23 36.21163 140.24312 10690 ft 371 kts 191°
2026-02-21 06:23 36.18643 140.23813 10352 ft 362 kts 191°
2026-02-21 06:23 36.16293 140.23347 10148 ft 350 kts 191°
2026-02-21 06:24 36.13915 140.22876 9942 ft 339 kts 191°
2026-02-21 06:24 36.11615 140.22420 9740 ft 328 kts 191°
2026-02-21 06:24 36.09400 140.21980 9537 ft 318 kts 191°
2026-02-21 06:24 36.07242 140.21555 9344 ft 308 kts 191°
2026-02-21 06:25 36.05144 140.21138 9191 ft 297 kts 191°
2026-02-21 06:25 36.03131 140.20790 9050 ft 289 kts 188°
2026-02-21 06:25 36.01137 140.20569 8914 ft 283 kts 185°
2026-02-21 06:25 35.99167 140.20479 8780 ft 283 kts 182°
2026-02-21 06:26 35.97196 140.20447 8655 ft 283 kts 182°
2026-02-21 06:26 35.95202 140.20415 8528 ft 282 kts 182°
2026-02-21 06:26 35.93227 140.20383 8371 ft 283 kts 182°
2026-02-21 06:26 35.91286 140.20351 8247 ft 282 kts 182°
2026-02-21 06:27 35.89298 140.20317 8142 ft 281 kts 182°
2026-02-21 06:27 35.87340 140.20285 8037 ft 280 kts 182°
2026-02-21 06:27 35.85381 140.20252 7979 ft 280 kts 182°
2026-02-21 06:27 35.83424 140.20219 7977 ft 280 kts 182°
2026-02-21 06:28 35.81477 140.20186 7979 ft 280 kts 181°
2026-02-21 06:28 35.79609 140.20154 7978 ft 279 kts 181°
2026-02-21 06:28 35.77686 140.20160 7979 ft 279 kts 179°
2026-02-21 06:28 35.75739 140.20244 7981 ft 279 kts 179°
2026-02-21 06:29 35.73811 140.20337 7969 ft 269 kts 179°
2026-02-21 06:29 35.72028 140.20422 7964 ft 254 kts 179°
2026-02-21 06:29 35.70299 140.20506 7956 ft 239 kts 179°
2026-02-21 06:29 35.68651 140.20584 7963 ft 238 kts 179°
2026-02-21 06:30 35.66981 140.20659 7965 ft 239 kts 179°
2026-02-21 06:30 35.65310 140.20735 7969 ft 239 kts 179°
2026-02-21 06:30 35.63694 140.20810 7968 ft 240 kts 179°
2026-02-21 06:30 35.62091 140.20877 7976 ft 240 kts 180°
2026-02-21 06:31 35.60434 140.20898 7973 ft 239 kts 181°
2026-02-21 06:31 35.58761 140.20905 7976 ft 239 kts 181°
2026-02-21 06:31 35.57084 140.20912 7975 ft 238 kts 181°
2026-02-21 06:31 35.55454 140.20921 7846 ft 234 kts 181°
2026-02-21 06:32 35.53824 140.20932 7509 ft 235 kts 181°
2026-02-21 06:32 35.52187 140.20943 7182 ft 234 kts 180°
2026-02-21 06:32 35.50559 140.20969 6897 ft 232 kts 176°
2026-02-21 06:32 35.49081 140.21526 6537 ft 234 kts 143°
2026-02-21 06:33 35.47985 140.22966 6243 ft 231 kts 127°
2026-02-21 06:33 35.47071 140.24432 5945 ft 231 kts 127°
2026-02-21 06:33 35.46084 140.25966 5628 ft 230 kts 131°
2026-02-21 06:33 35.44788 140.27058 5278 ft 231 kts 167°
2026-02-21 06:34 35.43227 140.26895 4950 ft 229 kts 206°
2026-02-21 06:34 35.42044 140.25716 4640 ft 227 kts 236°
2026-02-21 06:34 35.41447 140.23943 4343 ft 223 kts 262°
2026-02-21 06:34 35.41254 140.22221 4078 ft 222 kts 263°
2026-02-21 06:35 35.41053 140.20460 3975 ft 222 kts 262°
2026-02-21 06:35 35.40815 140.18559 3984 ft 225 kts 261°
2026-02-21 06:35 35.40564 140.16692 3974 ft 225 kts 261°
2026-02-21 06:35 35.40297 140.14786 3976 ft 225 kts 261°
2026-02-21 06:36 35.40028 140.12913 3964 ft 224 kts 261°
2026-02-21 06:36 35.39753 140.11020 3971 ft 223 kts 260°
2026-02-21 06:36 35.39483 140.09174 3972 ft 224 kts 260°
2026-02-21 06:36 35.39216 140.07350 3974 ft 224 kts 261°
2026-02-21 06:37 35.38955 140.05574 3976 ft 224 kts 261°
2026-02-21 06:37 35.38703 140.03854 3981 ft 224 kts 261°
2026-02-21 06:37 35.38444 140.02098 3988 ft 224 kts 261°
2026-02-21 06:37 35.38188 140.00362 3977 ft 224 kts 261°
2026-02-21 06:38 35.37911 139.98482 3986 ft 224 kts 261°
2026-02-21 06:38 35.37633 139.96593 3976 ft 225 kts 261°
2026-02-21 06:38 35.37356 139.94710 3982 ft 225 kts 263°
2026-02-21 06:38 35.37475 139.92837 3843 ft 222 kts 294°
2026-02-21 06:39 35.38399 139.91360 3554 ft 218 kts 326°
2026-02-21 06:39 35.39694 139.90437 3280 ft 216 kts 335°
2026-02-21 06:39 35.41028 139.89629 3079 ft 208 kts 335°
2026-02-21 06:39 35.42296 139.88805 2788 ft 203 kts 333°
2026-02-21 06:40 35.43506 139.87965 2481 ft 195 kts 332°
2026-02-21 06:40 35.44635 139.87160 2190 ft 184 kts 331°
2026-02-21 06:40 35.45725 139.86379 1943 ft 179 kts 332°
2026-02-21 06:40 35.46760 139.85638 1721 ft 164 kts 331°
2026-02-21 06:41 35.47727 139.84950 1499 ft 159 kts 332°
2026-02-21 06:41 35.48667 139.84283 1298 ft 151 kts 331°
2026-02-21 06:41 35.49564 139.83646 1097 ft 147 kts 331°
2026-02-21 06:41 35.50456 139.83012 908 ft 147 kts 330°
2026-02-21 06:42 35.51348 139.82381 722 ft 148 kts 330°
2026-02-21 06:42 35.52238 139.81749 535 ft 147 kts 330°
2026-02-21 06:42 35.53117 139.81113 307 ft 146 kts 330°
2026-02-21 06:42 35.54006 139.80493 102 ft 146 kts 329°
2026-02-21 06:43 35.54870 139.79875 28 ft 130 kts 330°
2026-02-21 06:43 35.55510 139.79421 28 ft 80 kts 329°
2026-02-21 06:43 35.55878 139.79161 28 ft 48 kts 329°
2026-02-21 06:43 35.56000 139.79065 28 ft 0 kts 323°
2026-02-21 06:44 35.56019 139.79047 28 ft 9 kts 320°
2026-02-21 06:44 35.56078 139.78973 28 ft 14 kts 309°
2026-02-21 06:44 35.56140 139.78857 28 ft 17 kts 296°
2026-02-21 06:44 35.56076 139.78760 28 ft 17 kts 202°
2026-02-21 06:45 35.56053 139.78728 28 ft 0 kts 267°
2026-02-21 06:45 35.56051 139.78702 28 ft 8 kts 262°
2026-02-21 06:45 35.56044 139.78690 28 ft 0 kts 155°
2026-02-21 06:45 35.56038 139.78693 28 ft 2 kts 157°
2026-02-21 06:46 35.56009 139.78705 28 ft 6 kts 161°
2026-02-21 06:46 35.55957 139.78729 28 ft 9 kts 156°
2026-02-21 06:46 35.55889 139.78770 28 ft 12 kts 151°
2026-02-21 06:46 35.55808 139.78832 28 ft 14 kts 147°
2026-02-21 06:47 35.55746 139.78935 28 ft 16 kts 101°
2026-02-21 06:47 35.55677 139.79045 28 ft 17 kts 146°
2026-02-21 06:47 35.55567 139.79125 28 ft 19 kts 150°
2026-02-21 06:47 35.55462 139.79073 28 ft 18 kts 236°
2026-02-21 06:48 35.55400 139.78935 28 ft 10 kts 245°
2026-02-21 06:48 35.55397 139.78925 28 ft 0 kts 250°
2026-02-21 06:48 35.55391 139.78893 28 ft 14 kts 270°
2026-02-21 06:48 35.55400 139.78838 28 ft 4 kts 284°
2026-02-21 06:49 35.55408 139.78796 28 ft 5 kts 284°
2026-02-21 06:49 35.55410 139.78786 28 ft 0 kts 284°